This is the latest recevied weather packets stored in our database for station/object WP4NYS-13. If no packets are shown the sender has not sent any weather packets the latest 10 day(s).
| Time | Temp. | Humidity | Pressure | Rain* | Wind** | Luminosity | Snow |
|---|---|---|---|---|---|---|---|
| 1777654067 | 30.56° C | 48% | 1013.1 hPa | 0 mm | - | - | - |
| 1777653763 | 30.56° C | 48% | 1013.3 hPa | 0 mm | - | - | - |
| 1777653459 | 30.56° C | 48% | 1013.3 hPa | 0 mm | - | - | - |
| 1777653157 | 30° C | 48% | 1013.4 hPa | 0 mm | - | - | - |
| 1777652852 | 30° C | 50% | 1013.5 hPa | 0 mm | - | - | - |
| 1777652549 | 30° C | 50% | 1013.5 hPa | 0 mm | - | - | - |
| 1777652246 | 30° C | 50% | 1013.4 hPa | 0 mm | - | - | - |
| 1777651944 | 30° C | 50% | 1013.3 hPa | 0 mm | - | - | - |
| 1777651640 | 30° C | 51% | 1013.3 hPa | 0 mm | - | - | - |
| 1777651337 | 30° C | 50% | 1013.5 hPa | 0 mm | - | - | - |
| 1777651034 | 30° C | 50% | 1013.6 hPa | 0 mm | - | - | - |
| 1777650731 | 30° C | 49% | 1013.6 hPa | 0 mm | - | - | - |
| 1777650428 | 29.44° C | 51% | 1013.7 hPa | 0 mm | - | - | - |
| 1777650125 | 29.44° C | 52% | 1013.7 hPa | 0 mm | - | - | - |
| 1777649822 | 29.44° C | 52% | 1013.6 hPa | 0 mm | - | - | - |
| 1777649520 | 29.44° C | 51% | 1013.8 hPa | 0 mm | - | - | - |
| 1777649215 | 28.89° C | 54% | 1013.6 hPa | 0 mm | - | - | - |
| 1777648912 | 28.33° C | 55% | 1013.7 hPa | 0 mm | - | - | - |
| 1777648610 | 28.33° C | 55% | 1014 hPa | 0 mm | - | - | - |
| 1777648307 | 28.33° C | 56% | 1013.6 hPa | 0 mm | - | - | - |
| 1777648003 | 27.22° C | 57% | 1013.8 hPa | 0 mm | - | - | - |
| 1777647699 | 27.78° C | 56% | 1014 hPa | 0 mm | - | - | - |
| 1777647395 | 27.78° C | 57% | 1013.9 hPa | 0 mm | - | - | - |
| 1777647094 | 27.22° C | 57% | 1013.7 hPa | 0 mm | - | - | - |
| 1777646790 | 27.22° C | 59% | 1013.9 hPa | 0 mm | - | - | - |
* Rain latest hour (hover to see other rain measurements)
** Current wind speed in m/s (hover to see current wind gust speed)